Flag for U.S.A. Weather past 2 weeks in Bowling Green, Kentucky, U.S.A.

Now
44 °F

Sunny.


Feels Like: 44 °F
Forecast: 43 / 73 °F
Wind: No wind

Location: Glasgow Municipal Airport

Current Time: Mar 31, 2015 at 7:19:43 AM

Latest Report: Mar 31, 2015 at 6:50 AM


Visibility: 10 mi

Pressure: 29.97 "Hg

Humidity: 56%

Dew point: 29 °F

Location of Bowling GreenLocation

Historic Weather in Bowling Green — Graph

°F

Bowling Green temperature yesterday

Maximum temperature yesterday: 64 °F (at 4:10 PM)
Minimum temperature yesterday: 39 °F (at 7:10 AM)
Average temperature yesterday: 53 °F

Past Weeks' High & Low Weather Summary

 TemperatureHumidityPressure
High75 °F (Mar 16, 2:30 PM)100% (Mar 16, 6:10 AM)30.36 "Hg (Mar 16, 6:10 AM)
Low21 °F (Mar 29, 5:50 AM)19% (Mar 29, 1:10 PM)29.81 "Hg (Mar 26, 4:10 AM)
Average49 °F65%30.10 "Hg
* Reported Mar 16 6:10 AM — Mar 31 6:10 AM, Bowling Green, Weather by CustomWeather, © 2015

Note: Actual official high and low records may vary slightly from our data, if they occured in-between our weather recording intervals... More about our weather records

Advertising

Bowling Green weather history for previous 24 hours

 ConditionsComfort  
Time TempWeatherWind HumidityBarometerVisibility
6:10 AM
Tue, Mar 31
43 °FClear.No wind60%29.97 "Hg10 mi
5:50 AM43 °FClear.No wind59%29.97 "Hg10 mi
5:30 AM44 °FClear.No wind56%29.97 "Hg10 mi
5:10 AM43 °FClear.No wind62%29.98 "Hg10 mi
4:50 AM42 °FClear.No wind66%29.98 "Hg10 mi
4:10 AM39 °FClear.No wind78%29.98 "Hg10 mi
3:50 AM38 °FClear.No wind83%29.99 "Hg10 mi
3:10 AM39 °FClear.No wind79%30.01 "Hg10 mi
2:50 AM39 °FClear.No wind79%30.01 "Hg10 mi
2:10 AM39 °FClear.No wind79%30.03 "Hg10 mi
1:50 AM39 °FClear.No wind79%30.04 "Hg10 mi
1:30 AM40 °FClear.No wind81%30.04 "Hg10 mi
1:10 AM40 °FClear.No wind76%30.05 "Hg10 mi
12:50 AM42 °FClear.No wind71%30.05 "Hg10 mi
12:30 AM41 °FClear.No wind77%30.05 "Hg10 mi
12:10 AM41 °FClear.No wind76%30.05 "Hg10 mi
11:50 PM
Mon, Mar 30
42 °FClear.No wind74%30.07 "Hg10 mi
11:30 PM42 °FClear.No wind75%30.08 "Hg10 mi
11:10 PM42 °FClear.No wind73%30.08 "Hg10 mi
10:50 PM44 °FClear.No wind70%30.09 "Hg10 mi
10:10 PM45 °FClear.No wind61%30.10 "Hg10 mi
9:50 PM45 °FClear.No wind60%30.10 "Hg10 mi
9:10 PM47 °FClear.No wind56%30.11 "Hg10 mi
8:50 PM50 °FClear.No wind48%30.11 "Hg10 mi
8:10 PM51 °FClear.No wind44%30.10 "Hg10 mi
7:50 PM53 °FClear.No wind37%30.10 "Hg10 mi
7:10 PM56 °FClear.No wind33%30.10 "Hg10 mi
6:50 PM58 °FSunny.5 mph31%30.10 "Hg10 mi
6:30 PM60 °FSunny.6 mph30%30.10 "Hg10 mi
6:10 PM62 °FSunny.9 mph29%30.09 "Hg10 mi
5:50 PM62 °FSunny.9 mph28%30.10 "Hg10 mi
5:10 PM63 °FSunny.3 mph29%30.11 "Hg10 mi
4:50 PM63 °FSunny.12 mph28%30.11 "Hg10 mi
4:10 PM64 °FSunny.8 mph28%30.10 "Hg10 mi
3:50 PM63 °FSunny.6 mph28%30.10 "Hg10 mi
3:30 PM63 °FSunny.6 mph27%30.11 "Hg10 mi
3:10 PM64 °FSunny.No wind27%30.11 "Hg10 mi
2:50 PM63 °FSunny.7 mph26%30.13 "Hg10 mi
2:30 PM63 °FSunny.5 mph28%30.13 "Hg10 mi
2:10 PM62 °FSunny.10 mph27%30.14 "Hg10 mi
1:50 PM62 °FSunny.9 mph28%30.15 "Hg10 mi
1:30 PM61 °FSunny.6 mph29%30.16 "Hg10 mi
1:10 PM61 °FSunny.7 mph30%30.17 "Hg10 mi
12:50 PM61 °FSunny.9 mph29%30.18 "Hg10 mi
12:30 PM60 °FSunny.7 mph32%30.18 "Hg10 mi
12:10 PM59 °FSunny.10 mph30%30.19 "Hg10 mi
11:50 AM59 °FSunny.12 mph32%30.18 "Hg10 mi
11:30 AM58 °FSunny.10 mph33%30.19 "Hg10 mi
11:10 AM58 °FSunny.8 mph36%30.19 "Hg10 mi
10:50 AM57 °FSunny.5 mph39%30.19 "Hg10 mi
10:30 AM57 °FSunny.10 mph41%30.19 "Hg10 mi
10:10 AM56 °FSunny.8 mph48%30.18 "Hg10 mi
9:50 AM55 °FSunny.10 mph50%30.18 "Hg10 mi
9:30 AM54 °FSunny.9 mph53%30.17 "Hg10 mi
9:10 AM53 °FSunny.8 mph58%30.16 "Hg10 mi
8:50 AM53 °FSunny.7 mph70%30.16 "Hg10 mi
8:10 AM48 °FSunny.5 mph100%30.15 "Hg10 mi
7:50 AM46 °FSunny.3 mph100%30.15 "Hg7 mi
7:10 AM39 °FFog.No wind100%30.13 "Hg0 mi
Weather by CustomWeather, © 2015

See weather overviewHow to use our weather pages